Wooster, OH

6:03 AM EST on December 06, 2019 (GMT -0500)
Wayne County

Weather History for KBJJ - October, 2019

Change the Weather History Date:

Monday, October 28, 2019

  Actual Average Record
Temperature  
Mean Temperature 50 °F -  
Max Temperature 64 °F 56 °F 75 °F (2014)
Min Temperature 35 °F 35 °F 27 °F (2013)
Degree Days  
Heating Degree Days 16    
Moisture  
Dew Point 42 °F    
Average Humidity 85    
Maximum Humidity 100    
Minimum Humidity 50    
Precipitation  
Precipitation 0.00 in - - ()
Sea Level Pressure  
Sea Level Pressure 30.12 in    
Wind  
Wind Speed 2 mph (South)    
Max Wind Speed 9 mph    
Max Gust Speed -    
Visibility 7 miles    
Events Fog    
Averages and records for this station are not official NWS values.
T = Trace of Precipitation, MM = Missing Value Source: NWS Daily Summary

Daily Weather History Graph

Daily Weather History Graph

Search for Another Location

Airport or City:

Astronomy

Oct. 28, 2019 Rise Set
Actual Time 7:53 AM EDT 6:28 PM EDT
Civil Twilight 7:24 AM EDT 6:57 PM EDT
Nautical Twilight 6:52 AM EDT 7:29 PM EDT
Astronomical Twilight 6:20 AM EDT 8:01 PM EDT
Moon 8:12 AM EDT (10/28) 7:13 PM EDT (10/28)
Length of Visible Light 11h 32m
Length of Day
10h 35m
New Moon, 0% of the Moon is Illuminated
Oct 28
New Moon
Nov 4
First Quarter
Nov 12
Full
Nov 19
Last Quarter
Nov 26
New

Hourly Weather History & Observations

Time (EDT) Temp. Windchill Dew Point Humidity Pressure Visibility Wind Dir Wind Speed Gust Speed Precip Events Conditions
3:56 AM 36.0 °F - 36.0 °F 100% 30.12 in 0.2 mi Calm Calm - N/A Fog Fog
4:56 AM 35.1 °F - 35.1 °F 100% 30.13 in 0.5 mi Calm Calm - N/A Fog Fog
5:56 AM 35.1 °F - 34.0 °F 96% 30.14 in 0.2 mi Calm Calm - N/A Fog Fog
6:56 AM 35.1 °F - 34.0 °F 96% 30.14 in 0.2 mi Calm Calm - N/A Fog Fog
7:56 AM 35.1 °F - 35.1 °F 100% 30.15 in 0.2 mi Calm Calm - N/A Fog Fog
8:56 AM 37.0 °F - 37.0 °F 100% 30.17 in 0.2 mi Calm Calm - N/A Fog Fog
9:37 AM 45.0 °F 43.5 °F 45.0 °F 100% 30.15 in 1.2 mi South 3.5 mph - N/A   Overcast
9:44 AM 45.0 °F 43.5 °F 45.0 °F 100% 30.15 in 3.0 mi South 3.5 mph - N/A   Mostly Cloudy
9:56 AM 46.0 °F 43.9 °F 46.0 °F 100% 30.17 in 6.0 mi SSW 4.6 mph - N/A   Scattered Clouds
10:56 AM 51.1 °F - 48.0 °F 89% 30.17 in 10.0 mi SSE 5.8 mph - N/A   Clear
11:56 AM 57.0 °F - 48.9 °F 74% 30.16 in 10.0 mi SSW 6.9 mph - N/A   Clear
12:56 PM 60.1 °F - 46.9 °F 62% 30.13 in 10.0 mi South 9.2 mph - N/A   Clear
1:56 PM 61.0 °F - 46.0 °F 58% 30.11 in 10.0 mi SW 8.1 mph - N/A   Clear
2:56 PM 63.0 °F - 46.0 °F 54% 30.09 in 10.0 mi South 5.8 mph - N/A   Clear
3:56 PM 64.0 °F - 46.0 °F 52% 30.09 in 10.0 mi North - - N/A   Clear
4:56 PM 63.0 °F - 44.1 °F 50% 30.09 in 10.0 mi South 4.6 mph - N/A   Clear
5:56 PM 61.0 °F - 46.0 °F 58% 30.09 in 10.0 mi SSE 3.5 mph - N/A   Clear
6:56 PM 48.9 °F - 45.0 °F 86% 30.11 in 10.0 mi Calm Calm - N/A   Clear
7:56 PM 45.0 °F - 43.0 °F 93% 30.11 in 10.0 mi Calm Calm - N/A   Clear
8:56 PM 44.1 °F - 42.1 °F 93% 30.11 in 10.0 mi Calm Calm - N/A   Clear
9:56 PM 41.0 °F - 39.9 °F 96% 30.10 in 10.0 mi Calm Calm - N/A   Clear
10:56 PM 41.0 °F - 39.0 °F 93% 30.09 in 10.0 mi Calm Calm - N/A   Clear
11:56 PM 39.0 °F - 37.9 °F 96% 30.08 in 10.0 mi Calm Calm - N/A   Clear